| time (UTC) | temp F | wind direction | speed knots | gust knots | rain 1hr in | rain 24hr in | rain mn in | humidity % | barometer mb |
| 20260502222233 | 71 | 281 | 2.6 | 11.3 | 0.00 | 0.00 | 0.00 | 16 | 1015.8 |
| 20260502221233 | 71 | 278 | 3.5 | 9.6 | 0.00 | 0.00 | 0.00 | 15 | 1016.0 |
| 20260502220233 | 70 | 53 | 6.1 | 10.4 | 0.00 | 0.00 | 0.00 | 15 | 1016.2 |
| 20260502215716 | 71 | 27 | 1.7 | 6.1 | 0.00 | 0.00 | 0.00 | 16 | 1016.3 |
| 20260502214717 | 71 | 250 | 1.7 | 7.0 | 0.00 | 0.00 | 0.00 | 16 | 1016.5 |
| 20260502213230 | 71 | 254 | 4.3 | 13.0 | 0.00 | 0.00 | 0.00 | 16 | 1016.7 |
| 20260502212717 | 70 | 167 | 4.3 | 8.7 | 0.00 | 0.00 | 0.00 | 17 | 1016.7 |
| 20260502211231 | 70 | 290 | 4.3 | 11.3 | 0.00 | 0.00 | 0.00 | 16 | 1017.0 |
| 20260502210230 | 71 | 308 | 2.6 | 6.1 | 0.00 | 0.00 | 0.00 | 17 | 1017.1 |
| 20260502205231 | 70 | 269 | 4.3 | 9.6 | 0.00 | 0.00 | 0.00 | 16 | 1017.4 |
| 20260502204232 | 70 | 292 | 5.2 | 10.4 | 0.00 | 0.00 | 0.00 | 17 | 1017.4 |
| 20260502203231 | 70 | 252 | 4.3 | 9.6 | 0.00 | 0.00 | 0.00 | 18 | 1017.4 |
| 20260502202232 | 71 | 242 | 2.6 | 8.7 | 0.00 | 0.00 | 0.00 | 17 | 1017.4 |
| 20260502201231 | 70 | 302 | 2.6 | 7.8 | 0.00 | 0.00 | 0.00 | 19 | 1017.7 |
| 20260502200622 | 68 | 332 | 5.2 | 11.3 | 0.00 | 0.00 | 0.00 | 20 | 1017.9 |
| 20260502200404 | 68 | 319 | 5.2 | 10.4 | 0.00 | 0.00 | 0.00 | 19 | 1017.8 |
| 20260502194716 | 68 | 13 | 3.5 | 10.4 | 0.00 | 0.00 | 0.00 | 19 | 1018.0 |
| 20260502193230 | 68 | 101 | 3.5 | 11.3 | 0.00 | 0.00 | 0.00 | 20 | 1018.1 |
| 20260502192230 | 67 | 32 | 5.2 | 12.2 | 0.00 | 0.00 | 0.00 | 20 | 1018.3 |
| 20260502191231 | 68 | 255 | 2.6 | 8.7 | 0.00 | 0.00 | 0.00 | 20 | 1018.5 |
| 20260502190232 | 68 | 264 | 3.5 | 9.6 | 0.00 | 0.00 | 0.00 | 20 | 1018.7 |
| 20260502185232 | 67 | 297 | 2.6 | 7.8 | 0.00 | 0.00 | 0.00 | 22 | 1018.7 |
| 20260502184226 | 67 | 306 | 3.5 | 8.7 | 0.00 | 0.00 | 0.00 | 22 | 1019.0 |
| 20260502183225 | 65 | 346 | 4.3 | 11.3 | 0.00 | 0.00 | 0.00 | 21 | 1019.1 |
| 20260502182224 | 65 | 259 | 3.5 | 10.4 | 0.00 | 0.00 | 0.00 | 21 | 1019.2 |
| 20260502181225 | 65 | 270 | 3.5 | 7.0 | 0.00 | 0.00 | 0.00 | 22 | 1019.4 |
| 20260502180225 | 65 | 312 | 3.5 | 9.6 | 0.00 | 0.00 | 0.00 | 22 | 1019.5 |
| 20260502170225 | 63 | 318 | 5.2 | 9.6 | 0.00 | 0.00 | 0.00 | 22 | 1020.2 |
| 20260502163224 | 62 | 273 | 2.6 | 8.7 | 0.00 | 0.00 | 0.00 | 23 | 1020.2 |
| 20260502162225 | 62 | 217 | 0.9 | 3.5 | 0.00 | 0.00 | 0.00 | 22 | 1020.2 |
| 20260502161225 | 63 | 274 | 0.9 | 4.3 | 0.00 | 0.00 | 0.00 | 22 | 1020.5 |
| 20260502160707 | 62 | 201 | 1.7 | 6.1 | 0.00 | 0.00 | 0.00 | 24 | 1020.5 |
| 20260502152223 | 59 | 297 | 2.6 | 4.3 | 0.00 | 0.00 | 0.00 | 32 | 1020.7 |
| 20260502151222 | 58 | 314 | 1.7 | 4.3 | 0.00 | 0.00 | 0.00 | 34 | 1020.8 |
| 20260502150220 | 57 | 297 | 0.9 | 3.5 | 0.00 | 0.00 | 0.00 | 40 | 1020.9 |
| 20260502130214 | 39 | 96 | 0.0 | 0.0 | 0.00 | 0.00 | 0.00 | 63 | 1021.3 |
| 20260502123209 | 35 | 96 | 0.0 | 0.9 | 0.00 | 0.00 | 0.00 | 71 | 1021.2 |
| 20260502122209 | 35 | 96 | 0.0 | 0.9 | 0.00 | 0.00 | 0.00 | 72 | 1021.1 |
| 20260502121208 | 34 | 95 | 0.0 | 0.0 | 0.00 | 0.00 | 0.00 | 74 | 1021.1 |
| 20260502120208 | 34 | 95 | 0.0 | 0.0 | 0.00 | 0.00 | 0.00 | 76 | 1021.1 |
| 20260502115208 | 34 | 95 | 0.0 | 0.9 | 0.00 | 0.00 | 0.00 | 73 | 1021.1 |
| 20260502114208 | 34 | 95 | 0.0 | 0.9 | 0.00 | 0.00 | 0.00 | 74 | 1021.1 |
| 20260502113208 | 35 | 95 | 0.0 | 0.0 | 0.00 | 0.00 | 0.00 | 73 | 1020.8 |
| 20260502112209 | 34 | 95 | 0.0 | 0.9 | 0.00 | 0.00 | 0.00 | 71 | 1020.9 |
| 20260502111209 | 35 | 165 | 0.0 | 0.0 | 0.00 | 0.00 | 0.00 | 72 | 1020.8 |
| 20260502110203 | 35 | 165 | 0.0 | 0.0 | 0.00 | 0.00 | 0.00 | 70 | 1020.8 |
| 20260502110122 | 36 | 165 | 0.0 | 0.0 | 0.00 | 0.00 | 0.00 | 67 | 1020.7 |
| 20260502104202 | 36 | 165 | 0.0 | 0.0 | 0.00 | 0.00 | 0.00 | 66 | 1020.7 |
| 20260502103202 | 37 | 174 | 0.0 | 0.0 | 0.00 | 0.00 | 0.00 | 62 | 1020.7 |
| 20260502102203 | 38 | 174 | 0.0 | 0.9 | 0.00 | 0.00 | 0.00 | 61 | 1020.7 |
| 20260502101204 | 38 | 189 | 0.0 | 0.0 | 0.00 | 0.00 | 0.00 | 59 | 1020.5 |
| 20260502100201 | 39 | 189 | 0.0 | 0.0 | 0.00 | 0.00 | 0.00 | 58 | 1020.5 |
| 20260502091155 | 40 | 94 | 0.0 | 0.0 | 0.00 | 0.00 | 0.00 | 54 | 1020.0 |
| 20260502090157 | 40 | 94 | 0.0 | 0.0 | 0.00 | 0.00 | 0.00 | 56 | 1020.0 |
| 20260502071150 | 42 | 93 | 0.0 | 0.0 | 0.00 | 0.00 | 0.00 | 54 | 1020.6 |
| 20260502070151 | 43 | 93 | 0.0 | 0.0 | 0.00 | 0.00 | 0.00 | 52 | 1020.6 |
| 20260502065628 | 44 | 93 | 0.0 | 0.0 | 0.00 | 0.00 | 0.00 | 49 | 1020.6 |
| 20260502064150 | 44 | 93 | 0.9 | 0.9 | 0.00 | 0.00 | 0.00 | 49 | 1020.7 |
| 20260502063151 | 45 | 93 | 0.0 | 1.7 | 0.00 | 0.00 | 0.00 | 49 | 1020.7 |
| 20260502062151 | 47 | 127 | 0.0 | 0.9 | 0.00 | 0.00 | 0.00 | 44 | 1020.7 |
| 20260502061635 | 46 | 127 | 0.0 | 0.0 | 0.00 | 0.00 | 0.00 | 46 | 1020.7 |
| 20260502060150 | 47 | 127 | 0.0 | 0.0 | 0.00 | 0.00 | 0.00 | 46 | 1020.7 |
| 20260502055151 | 48 | 127 | 0.0 | 0.9 | 0.00 | 0.00 | 0.00 | 45 | 1020.7 |
| 20260502054151 | 49 | 127 | 0.0 | 0.9 | 0.00 | 0.00 | 0.00 | 43 | 1020.7 |
| 20260502053150 | 49 | 127 | 0.0 | 0.9 | 0.00 | 0.00 | 0.00 | 45 | 1020.6 |
| 20260502052150 | 49 | 127 | 0.0 | 0.9 | 0.00 | 0.00 | 0.00 | 43 | 1020.6 |
| 20260502051146 | 49 | 126 | 0.0 | 0.9 | 0.00 | 0.00 | 0.00 | 43 | 1020.5 |
| 20260502050147 | 50 | 127 | 0.0 | 0.9 | 0.00 | 0.00 | 0.00 | 43 | 1020.4 |
| 20260502045146 | 50 | 153 | 0.0 | 0.0 | 0.00 | 0.00 | 0.00 | 42 | 1020.5 |
| 20260502044623 | 50 | 153 | 0.0 | 0.9 | 0.00 | 0.00 | 0.00 | 43 | 1020.4 |
| 20260502043147 | 49 | 90 | 0.0 | 1.7 | 0.00 | 0.00 | 0.00 | 43 | 1020.4 |
| 20260502043110 | 50 | 145 | 0.0 | 0.9 | 0.00 | 0.00 | 0.00 | 41 | 1020.4 |
| 20260502041636 | 51 | 145 | 0.0 | 0.9 | 0.00 | 0.00 | 0.00 | 37 | 1020.2 |
| 20260502040145 | 51 | 145 | 0.0 | 0.9 | 0.00 | 0.00 | 0.00 | 37 | 1020.1 |
| 20260502035143 | 51 | 145 | 0.0 | 0.9 | 0.00 | 0.00 | 0.00 | 37 | 1020.1 |
| 20260502034621 | 51 | 145 | 0.0 | 1.7 | 0.00 | 0.00 | 0.00 | 37 | 1020.0 |
| 20260502033138 | 52 | 145 | 0.0 | 0.9 | 0.00 | 0.00 | 0.00 | 37 | 1019.7 |
| 20260502032619 | 53 | 145 | 0.0 | 0.9 | 0.00 | 0.00 | 0.00 | 38 | 1019.4 |
| 20260502031137 | 53 | 145 | 0.0 | 0.9 | 0.00 | 0.00 | 0.00 | 37 | 1019.3 |
| 20260502030137 | 53 | 145 | 0.0 | 0.9 | 0.00 | 0.00 | 0.00 | 36 | 1019.2 |
| 20260502025629 | 53 | 145 | 0.0 | 0.9 | 0.00 | 0.00 | 0.00 | 34 | 1019.1 |
| 20260502024139 | 54 | 145 | 0.0 | 0.9 | 0.00 | 0.00 | 0.00 | 33 | 1018.8 |
| 20260502023137 | 53 | 164 | 0.0 | 0.9 | 0.00 | 0.00 | 0.00 | 34 | 1018.7 |
| 20260502022139 | 54 | 175 | 0.0 | 0.9 | 0.00 | 0.00 | 0.00 | 33 | 1018.5 |
| 20260502021621 | 55 | 182 | 0.0 | 0.0 | 0.00 | 0.00 | 0.00 | 30 | 1018.3 |
| 20260502020133 | 57 | 182 | 0.0 | 0.0 | 0.00 | 0.00 | 0.00 | 29 | 1018.3 |
| 20260502020104 | 58 | 182 | 0.0 | 1.7 | 0.00 | 0.00 | 0.00 | 27 | 1018.1 |
| 20260502014132 | 59 | 186 | 0.9 | 2.6 | 0.00 | 0.00 | 0.00 | 26 | 1017.9 |
| 20260502013132 | 60 | 197 | 1.7 | 5.2 | 0.00 | 0.00 | 0.00 | 25 | 1017.8 |
| 20260502012130 | 61 | 205 | 1.7 | 7.0 | 0.00 | 0.00 | 0.00 | 25 | 1017.8 |
| 20260502011131 | 61 | 205 | 0.9 | 2.6 | 0.00 | 0.00 | 0.00 | 23 | 1017.6 |
| 20260502010129 | 62 | 147 | 1.7 | 5.2 | 0.00 | 0.00 | 0.00 | 22 | 1017.4 |
| 20260502005129 | 61 | 163 | 0.9 | 4.3 | 0.00 | 0.00 | 0.00 | 24 | 1017.3 |
| 20260502004131 | 61 | 171 | 1.7 | 4.3 | 0.00 | 0.00 | 0.00 | 23 | 1017.3 |
| 20260502003125 | 61 | 178 | 1.7 | 4.3 | 0.00 | 0.00 | 0.00 | 22 | 1017.3 |
| 20260502002123 | 62 | 141 | 0.9 | 4.3 | 0.00 | 0.00 | 0.00 | 22 | 1017.3 |
| 20260502001124 | 62 | 181 | 3.5 | 8.7 | 0.00 | 0.00 | 0.00 | 21 | 1017.2 |
| 20260502000124 | 62 | 121 | 3.5 | 7.8 | 0.00 | 0.00 | 0.00 | 22 | 1017.2 |
| 20260501235603 | 62 | 123 | 2.6 | 7.8 | 0.00 | 0.00 | 0.00 | 21 | 1017.2 |
| 20260501234124 | 63 | 204 | 4.3 | 9.6 | 0.00 | 0.00 | 0.00 | 22 | 1017.2 |
| 20260501233125 | 63 | 134 | 2.6 | 7.0 | 0.00 | 0.00 | 0.00 | 21 | 1017.2 |
| 20260501232123 | 63 | 152 | 2.6 | 7.0 | 0.00 | 0.00 | 0.00 | 21 | 1017.3 |
| 20260501231124 | 63 | 188 | 2.6 | 9.6 | 0.00 | 0.00 | 0.00 | 21 | 1017.3 |
| 20260501230118 | 63 | 219 | 2.6 | 6.1 | 0.00 | 0.00 | 0.00 | 22 | 1017.2 |
| 20260501225118 | 62 | 201 | 2.6 | 6.1 | 0.00 | 0.00 | 0.00 | 22 | 1017.3 |
| 20260501224117 | 63 | 205 | 2.6 | 7.8 | 0.00 | 0.00 | 0.00 | 22 | 1017.3 |
| 20260501223116 | 62 | 257 | 1.7 | 6.1 | 0.00 | 0.00 | 0.00 | 23 | 1017.3 |